When you browse on this site, cookies collect data to enhance your experience and personalize the content and advertising you see.
Visit our Privacy Policy to learn more. By continuing to use the site, you agree to this use of cookies and data.
  • In Hungary
  • List of Countries
  • For 7 days
  • Water Temperature
  • Satellite Maps
  • Weather Map
  • News
  • Weather Widgets
  • user-avatar
    Login

    Hourly Weather Milogoszcz

    Today, 19 May, Sunday

    Time Temperature Precipitation Wind Pressure Humidity
    00:00 +14°C° 0 mm 2 mps 744 mmHg 85%
    01:00 +14°C° 0 mm 2 mps 743 mmHg 87%
    02:00 +13°C° 0.3 mm 1 mps 743 mmHg 88%
    03:00 +13°C° 0.3 mm 1 mps 743 mmHg 89%
    04:00 +13°C° 0.3 mm 1 mps 743 mmHg 90%
    05:00 +14°C° 0.2 mm 1 mps 743 mmHg 87%
    06:00 +16°C° 0.2 mm 1 mps 743 mmHg 84%
    07:00 +17°C° 0.2 mm 2 mps 743 mmHg 81%
    08:00 +19°C° 0.1 mm 2 mps 743 mmHg 75%
    09:00 +20°C° 0.1 mm 2 mps 742 mmHg 69%
    10:00 +23°C° 0.1 mm 2 mps 742 mmHg 63%
    11:00 +24°C° 0.3 mm 2 mps 742 mmHg 60%
    12:00 +25°C° 0.3 mm 2 mps 742 mmHg 57%
    13:00 +25°C° 0.3 mm 3 mps 742 mmHg 53%
    14:00 +25°C° 0 mm 3 mps 741 mmHg 54%
    15:00 +25°C° 0 mm 3 mps 741 mmHg 54%
    16:00 +25°C° 0 mm 3 mps 741 mmHg 54%
    17:00 +24°C° 0 mm 2 mps 741 mmHg 61%
    18:00 +23°C° 0 mm 2 mps 741 mmHg 67%
    19:00 +20°C° 0 mm 2 mps 740 mmHg 74%
    20:00 +20°C° 0.2 mm 1 mps 741 mmHg 78%
    21:00 +19°C° 0.2 mm 1 mps 741 mmHg 82%
    22:00 +16°C° 0.2 mm 1 mps 741 mmHg 86%
    23:00 +16°C° 0 mm 1 mps 741 mmHg 87%

    Tomorrow, 20 May, Monday

    Time Temperature Precipitation Wind Pressure Humidity
    00:00 +15°C° 0 mm 1 mps 741 mmHg 88%
    01:00 +15°C° 0 mm 1 mps 740 mmHg 89%
    02:00 +15°C° 0 mm 1 mps 740 mmHg 90%
    03:00 +14°C° 0 mm 1 mps 740 mmHg 90%
    04:00 +14°C° 0 mm 1 mps 740 mmHg 91%
    05:00 +15°C° 0 mm 1 mps 740 mmHg 88%
    06:00 +18°C° 0 mm 1 mps 740 mmHg 84%
    07:00 +19°C° 0 mm 1 mps 740 mmHg 81%
    08:00 +20°C° 0.2 mm 1 mps 740 mmHg 78%
    09:00 +21°C° 0.2 mm 2 mps 740 mmHg 74%
    10:00 +22°C° 0.2 mm 3 mps 740 mmHg 71%
    11:00 +21°C° 0.9 mm 3 mps 740 mmHg 76%
    12:00 +19°C° 0.9 mm 3 mps 740 mmHg 81%
    13:00 +18°C° 0.9 mm 4 mps 740 mmHg 86%
    14:00 +19°C° 0 mm 4 mps 740 mmHg 79%
    15:00 +20°C° 0 mm 4 mps 740 mmHg 71%
    16:00 +21°C° 0 mm 4 mps 740 mmHg 64%
    17:00 +21°C° 0 mm 4 mps 739 mmHg 69%
    18:00 +20°C° 0 mm 3 mps 739 mmHg 74%
    19:00 +19°C° 0 mm 3 mps 739 mmHg 80%
    20:00 +18°C° 0 mm 3 mps 740 mmHg 82%
    21:00 +16°C° 0 mm 3 mps 740 mmHg 84%
    22:00 +14°C° 0 mm 3 mps 740 mmHg 87%
    23:00 +14°C° 0 mm 3 mps 740 mmHg 88%

    Day after tomorrow, 21 May, Tuesday

    Time Temperature Precipitation Wind Pressure Humidity
    00:00 +13°C° 0 mm 3 mps 740 mmHg 89%
    01:00 +13°C° 0 mm 2 mps 740 mmHg 90%
    02:00 +12°C° 0 mm 3 mps 740 mmHg 90%
    03:00 +12°C° 0 mm 3 mps 740 mmHg 91%
    04:00 +11°C° 0 mm 3 mps 740 mmHg 91%
    05:00 +12°C° 0 mm 3 mps 741 mmHg 86%
    06:00 +13°C° 0 mm 3 mps 741 mmHg 80%
    07:00 +14°C° 0 mm 3 mps 741 mmHg 75%
    08:00 +17°C° 0 mm 3 mps 741 mmHg 70%
    09:00 +18°C° 0 mm 3 mps 741 mmHg 65%
    10:00 +20°C° 0 mm 3 mps 741 mmHg 60%
    11:00 +21°C° 0 mm 3 mps 741 mmHg 57%
    12:00 +22°C° 0 mm 3 mps 741 mmHg 54%
    13:00 +23°C° 0 mm 2 mps 741 mmHg 51%
    14:00 +24°C° 0 mm 2 mps 741 mmHg 51%
    15:00 +24°C° 0 mm 1 mps 741 mmHg 52%
    16:00 +24°C° 0 mm 1 mps 740 mmHg 52%
    17:00 +23°C° 0 mm 1 mps 740 mmHg 57%
    18:00 +22°C° 0 mm 1 mps 741 mmHg 61%
    19:00 +21°C° 0 mm 1 mps 741 mmHg 66%
    20:00 +20°C° 0 mm 1 mps 741 mmHg 69%
    21:00 +17°C° 0 mm 2 mps 741 mmHg 73%
    22:00 +16°C° 0 mm 2 mps 741 mmHg 76%
    23:00 +16°C° 0 mm 2 mps 741 mmHg 78%

    22 May, Wednesday

    Time Temperature Precipitation Wind Pressure Humidity
    00:00 +16°C° 0 mm 3 mps 741 mmHg 80%
    01:00 +16°C° 0 mm 3 mps 742 mmHg 82%
    02:00 +14°C° 0.1 mm 3 mps 742 mmHg 86%
    03:00 +15°C° 0.1 mm 2 mps 742 mmHg 89%
    04:00 +14°C° 0.1 mm 2 mps 742 mmHg 92%
    05:00 +15°C° 1.4 mm 2 mps 742 mmHg 93%
    06:00 +15°C° 1.4 mm 2 mps 742 mmHg 94%
    07:00 +15°C° 1.4 mm 2 mps 743 mmHg 95%
    08:00 +16°C° 2.2 mm 3 mps 743 mmHg 93%
    09:00 +16°C° 2.2 mm 3 mps 743 mmHg 92%
    10:00 +15°C° 2.2 mm 4 mps 744 mmHg 90%
    11:00 +16°C° 1.3 mm 5 mps 744 mmHg 90%
    12:00 +16°C° 1.3 mm 5 mps 744 mmHg 90%
    13:00 +16°C° 1.3 mm 6 mps 744 mmHg 90%
    14:00 +15°C° 0.2 mm 6 mps 745 mmHg 88%
    15:00 +15°C° 0.2 mm 6 mps 745 mmHg 87%
    16:00 +15°C° 0.2 mm 6 mps 745 mmHg 86%
    17:00 +14°C° 0.1 mm 6 mps 745 mmHg 88%
    18:00 +14°C° 0.1 mm 6 mps 746 mmHg 89%
    19:00 +13°C° 0.1 mm 5 mps 746 mmHg 91%
    20:00 +13°C° 0.3 mm 5 mps 746 mmHg 92%
    21:00 +13°C° 0.3 mm 4 mps 747 mmHg 94%
    22:00 +12°C° 0.3 mm 3 mps 747 mmHg 95%
    23:00 +12°C° 0 mm 4 mps 747 mmHg 95%

    23 May, Thursday

    Time Temperature Precipitation Wind Pressure Humidity
    00:00 +12°C° 0 mm 4 mps 747 mmHg 95%
    01:00 +12°C° 0 mm 5 mps 748 mmHg 94%
    02:00 +10°C° 0 mm 5 mps 748 mmHg 94%
    03:00 +9°C° 0 mm 5 mps 748 mmHg 95%
    04:00 +8°C° 0 mm 5 mps 748 mmHg 95%
    05:00 +9°C° 0 mm 5 mps 749 mmHg 92%
    06:00 +9°C° 0 mm 5 mps 749 mmHg 89%
    07:00 +10°C° 0 mm 5 mps 749 mmHg 86%
    08:00 +12°C° 0 mm 5 mps 749 mmHg 77%
    09:00 +13°C° 0 mm 6 mps 750 mmHg 68%
    10:00 +15°C° 0 mm 6 mps 750 mmHg 60%
    11:00 +16°C° 0 mm 5 mps 750 mmHg 57%
    12:00 +17°C° 0 mm 5 mps 749 mmHg 54%
    13:00 +17°C° 0 mm 5 mps 749 mmHg 50%
    14:00 +18°C° 0 mm 4 mps 749 mmHg 51%
    15:00 +18°C° 0 mm 4 mps 749 mmHg 51%
    16:00 +18°C° 0 mm 3 mps 749 mmHg 52%
    17:00 +17°C° 0 mm 3 mps 748 mmHg 57%
    18:00 +16°C° 0 mm 2 mps 748 mmHg 62%
    19:00 +15°C° 0 mm 1 mps 748 mmHg 68%
    20:00 +14°C° 0 mm 1 mps 748 mmHg 69%
    21:00 +13°C° 0 mm 1 mps 748 mmHg 70%
    22:00 +12°C° 0 mm 1 mps 749 mmHg 71%
    23:00 +11°C° 0 mm 1 mps 748 mmHg 73%

    24 May, Friday

    Time Temperature Precipitation Wind Pressure Humidity
    00:00 +11°C° 0 mm 1 mps 748 mmHg 74%
    01:00 +10°C° 0 mm 2 mps 748 mmHg 76%
    02:00 +9°C° 0 mm 2 mps 748 mmHg 78%
    03:00 +9°C° 0 mm 2 mps 747 mmHg 80%
    04:00 +9°C° 0 mm 2 mps 747 mmHg 82%
    05:00 +10°C° 0 mm 2 mps 747 mmHg 79%
    06:00 +13°C° 0 mm 2 mps 747 mmHg 77%
    07:00 +14°C° 0 mm 3 mps 747 mmHg 74%
    08:00 +16°C° 0 mm 3 mps 747 mmHg 70%
    09:00 +18°C° 0 mm 3 mps 746 mmHg 66%
    10:00 +20°C° 0 mm 3 mps 746 mmHg 62%
    11:00 +20°C° 0.1 mm 3 mps 746 mmHg 62%
    12:00 +21°C° 0.1 mm 4 mps 745 mmHg 62%
    13:00 +21°C° 0.1 mm 4 mps 745 mmHg 62%
    14:00 +21°C° 0.3 mm 4 mps 745 mmHg 63%
    15:00 +21°C° 0.3 mm 4 mps 744 mmHg 65%
    16:00 +21°C° 0.3 mm 3 mps 744 mmHg 66%
    17:00 +20°C° 0.1 mm 3 mps 744 mmHg 72%
    18:00 +19°C° 0.1 mm 3 mps 744 mmHg 77%
    19:00 +18°C° 0.1 mm 2 mps 744 mmHg 83%
    20:00 +17°C° 0 mm 2 mps 744 mmHg 85%
    21:00 +15°C° 0 mm 2 mps 744 mmHg 88%
    22:00 +14°C° 0 mm 2 mps 744 mmHg 90%
    23:00 +14°C° 0 mm 2 mps 744 mmHg 89%
    Show more